Time,TemperatureF,DewpointF,PressureIn,WindDirection,WindDirectionDegrees,WindSpeedMPH,WindSpeedGustMPH,Humidity,HourlyPrecipIn,Conditions,Clouds,dailyrainin,SoftwareType,DateUTC
2013-07-13 00:03:00,54.2,53.4,29.91,SW,220,5.0,5.0,97,0.00,,,0.00,WeatherCatV1.14B232,2013-07-13 07:03:00,
2013-07-13 00:08:00,54.2,53.4,29.91,WSW,237,5.0,7.0,97,0.00,,,0.00,WeatherCatV1.14B232,2013-07-13 07:08:00,
2013-07-13 00:13:00,54.3,53.5,29.90,SW,226,5.0,6.0,97,0.00,,,0.00,WeatherCatV1.14B232,2013-07-13 07:13:00,
2013-07-13 00:18:00,54.4,53.6,29.91,WSW,243,6.0,7.0,97,0.00,,,0.00,WeatherCatV1.14B232,2013-07-13 07:18:00,
2013-07-13 00:23:00,54.4,53.6,29.90,WSW,254,8.0,9.0,97,0.00,,,0.00,WeatherCatV1.14B232,2013-07-13 07:23:00,
2013-07-13 00:28:00,54.4,53.3,29.90,SW,217,8.0,8.0,96,0.00,,,0.00,WeatherCatV1.14B232,2013-07-13 07:28:00,
2013-07-13 00:33:00,54.4,53.6,29.90,SW,234,6.0,7.0,97,0.00,,,0.00,WeatherCatV1.14B232,2013-07-13 07:33:00,
2013-07-13 00:38:00,54.4,53.3,29.90,WSW,250,4.0,7.0,96,0.00,,,0.00,WeatherCatV1.14B232,2013-07-13 07:38:00,
2013-07-13 00:43:00,54.4,53.3,29.91,West,259,4.0,7.0,96,0.00,,,0.00,WeatherCatV1.14B232,2013-07-13 07:43:00,
2013-07-13 00:48:00,54.3,53.2,29.91,SW,219,6.0,6.0,96,0.00,,,0.00,WeatherCatV1.14B232,2013-07-13 07:48:00,
2013-07-13 00:53:00,54.3,53.2,29.91,WSW,250,6.0,7.0,96,0.00,,,0.00,WeatherCatV1.14B232,2013-07-13 07:53:00,
2013-07-13 00:58:00,54.2,53.4,29.91,SW,230,6.0,8.0,97,0.00,,,0.00,WeatherCatV1.14B232,2013-07-13 07:58:00,
2013-07-13 01:03:00,54.3,53.2,29.91,SSW,212,5.0,8.0,96,0.00,,,0.00,WeatherCatV1.14B232,2013-07-13 08:03:00,
2013-07-13 01:08:00,54.2,53.4,29.91,WSW,253,8.0,8.0,97,0.00,,,0.00,WeatherCatV1.14B232,2013-07-13 08:08:00,
2013-07-13 01:13:00,54.2,53.4,29.90,WSW,251,6.0,6.0,97,0.00,,,0.00,WeatherCatV1.14B232,2013-07-13 08:13:00,
2013-07-13 01:18:00,54.1,53.0,29.90,WSW,240,5.0,5.0,96,0.00,,,0.00,WeatherCatV1.14B232,2013-07-13 08:18:00,
2013-07-13 01:23:00,54.2,53.4,29.90,WSW,257,4.0,6.0,97,0.00,,,0.00,WeatherCatV1.14B232,2013-07-13 08:23:00,
2013-07-13 01:28:00,54.3,53.5,29.90,WSW,242,4.0,5.0,97,0.00,,,0.00,WeatherCatV1.14B232,2013-07-13 08:28:00,
2013-07-13 01:33:00,54.2,53.4,29.90,SW,236,6.0,6.0,97,0.00,,,0.00,WeatherCatV1.14B232,2013-07-13 08:33:00,
2013-07-13 01:38:00,54.1,53.3,29.90,SW,224,4.0,6.0,97,0.00,,,0.00,WeatherCatV1.14B232,2013-07-13 08:38:00,
2013-07-13 01:43:00,53.9,53.1,29.91,WSW,250,4.0,5.0,97,0.00,,,0.00,WeatherCatV1.14B232,2013-07-13 08:43:00,
2013-07-13 01:48:00,53.7,52.9,29.91,SW,236,4.0,5.0,97,0.00,,,0.00,WeatherCatV1.14B232,2013-07-13 08:48:00,
2013-07-13 01:53:00,53.9,53.1,29.91,WSW,245,5.0,5.0,97,0.00,,,0.00,WeatherCatV1.14B232,2013-07-13 08:53:00,
2013-07-13 01:58:00,53.9,53.1,29.91,WSW,241,5.0,7.0,97,0.00,,,0.00,WeatherCatV1.14B232,2013-07-13 08:58:00,
2013-07-13 02:03:00,53.9,53.1,29.91,WSW,240,6.0,8.0,97,0.00,,,0.00,WeatherCatV1.14B232,2013-07-13 09:03:00,
2013-07-13 02:08:00,53.9,53.1,29.91,WSW,249,7.0,9.0,97,0.00,,,0.00,WeatherCatV1.14B232,2013-07-13 09:08:00,
2013-07-13 02:13:00,54.0,53.2,29.91,WSW,252,6.0,11.0,97,0.00,,,0.00,WeatherCatV1.14B232,2013-07-13 09:13:00,
2013-07-13 02:18:00,54.0,53.2,29.91,WSW,255,5.0,8.0,97,0.00,,,0.00,WeatherCatV1.14B232,2013-07-13 09:18:00,
2013-07-13 02:23:00,53.9,53.1,29.91,WSW,255,7.0,9.0,97,0.00,,,0.00,WeatherCatV1.14B232,2013-07-13 09:23:00,
2013-07-13 02:28:00,53.9,53.1,29.91,SW,228,6.0,8.0,97,0.00,,,0.00,WeatherCatV1.14B232,2013-07-13 09:28:00,
2013-07-13 02:33:00,53.9,53.1,29.91,SW,225,5.0,8.0,97,0.00,,,0.00,WeatherCatV1.14B232,2013-07-13 09:33:00,
2013-07-13 02:39:00,54.0,53.2,29.91,SW,217,4.0,6.0,97,0.00,,,0.00,WeatherCatV1.14B232,2013-07-13 09:39:00,
2013-07-13 02:44:00,54.0,53.2,29.91,SW,229,5.0,6.0,97,0.00,,,0.00,WeatherCatV1.14B232,2013-07-13 09:44:00,
2013-07-13 02:49:00,54.0,53.2,29.91,WSW,246,5.0,7.0,97,0.00,,,0.00,WeatherCatV1.14B232,2013-07-13 09:49:00,
2013-07-13 02:54:00,53.9,53.1,29.91,SSW,212,4.0,5.0,97,0.00,,,0.00,WeatherCatV1.14B232,2013-07-13 09:54:00,
2013-07-13 02:59:00,53.9,53.1,29.91,WSW,242,5.0,6.0,97,0.00,,,0.00,WeatherCatV1.14B232,2013-07-13 09:59:00,
2013-07-13 03:04:00,53.6,52.8,29.91,SW,229,6.0,6.0,97,0.00,,,0.00,WeatherCatV1.14B232,2013-07-13 10:04:00,
2013-07-13 03:09:00,53.5,52.7,29.91,West,262,6.0,7.0,97,0.00,,,0.00,WeatherCatV1.14B232,2013-07-13 10:09:00,
2013-07-13 03:14:00,53.7,53.1,29.91,SW,223,8.0,8.0,98,0.00,,,0.00,WeatherCatV1.14B232,2013-07-13 10:14:00,
2013-07-13 03:19:00,53.8,53.2,29.91,WSW,242,6.0,8.0,98,0.00,,,0.00,WeatherCatV1.14B232,2013-07-13 10:19:00,
2013-07-13 03:24:00,53.9,53.3,29.91,WSW,256,9.0,11.0,98,0.00,,,0.00,WeatherCatV1.14B232,2013-07-13 10:24:00,
2013-07-13 03:29:00,54.0,53.4,29.91,West,259,6.0,10.0,98,0.00,,,0.00,WeatherCatV1.14B232,2013-07-13 10:29:00,
2013-07-13 03:34:00,54.0,53.4,29.91,SSW,210,7.0,12.0,98,0.00,,,0.00,WeatherCatV1.14B232,2013-07-13 10:34:00,
2013-07-13 03:39:00,54.1,53.5,29.91,SW,230,8.0,9.0,98,0.00,,,0.00,WeatherCatV1.14B232,2013-07-13 10:39:00,
2013-07-13 03:44:00,54.0,53.4,29.91,SSW,200,6.0,10.0,98,0.00,,,0.00,WeatherCatV1.14B232,2013-07-13 10:44:00,
2013-07-13 03:49:00,54.0,53.4,29.91,WSW,239,7.0,10.0,98,0.00,,,0.00,WeatherCatV1.14B232,2013-07-13 10:49:00,
2013-07-13 03:54:00,54.0,53.4,29.90,SW,221,9.0,11.0,98,0.00,,,0.00,WeatherCatV1.14B232,2013-07-13 10:54:00,
2013-07-13 03:59:00,54.0,53.4,29.90,SW,222,9.0,10.0,98,0.00,,,0.00,WeatherCatV1.14B232,2013-07-13 10:59:00,
2013-07-13 04:04:00,53.9,53.3,29.90,West,264,8.0,10.0,98,0.00,,,0.00,WeatherCatV1.14B232,2013-07-13 11:04:00,
2013-07-13 04:09:00,54.0,53.4,29.90,West,262,8.0,11.0,98,0.00,,,0.00,WeatherCatV1.14B232,2013-07-13 11:09:00,
2013-07-13 04:14:00,53.9,53.3,29.90,SW,234,8.0,12.0,98,0.00,,,0.00,WeatherCatV1.14B232,2013-07-13 11:14:00,
2013-07-13 04:19:00,53.9,53.3,29.90,WSW,243,7.0,11.0,98,0.00,,,0.00,WeatherCatV1.14B232,2013-07-13 11:19:00,
2013-07-13 04:24:00,53.9,53.3,29.90,SW,225,9.0,10.0,98,0.00,,,0.00,WeatherCatV1.14B232,2013-07-13 11:24:00,
2013-07-13 04:29:00,53.9,53.3,29.90,SW,225,10.0,10.0,98,0.00,,,0.00,WeatherCatV1.14B232,2013-07-13 11:29:00,
2013-07-13 04:34:00,53.9,53.3,29.90,West,260,8.0,11.0,98,0.00,,,0.00,WeatherCatV1.14B232,2013-07-13 11:34:00,
2013-07-13 04:39:00,53.8,53.2,29.90,SW,229,9.0,11.0,98,0.00,,,0.00,WeatherCatV1.14B232,2013-07-13 11:39:00,
2013-07-13 04:44:00,53.7,53.1,29.90,WSW,257,7.0,11.0,98,0.00,,,0.00,WeatherCatV1.14B232,2013-07-13 11:44:00,
2013-07-13 04:49:00,53.7,53.1,29.91,SW,223,6.0,9.0,98,0.00,,,0.00,WeatherCatV1.14B232,2013-07-13 11:49:00,
2013-07-13 04:54:00,53.6,53.0,29.91,West,262,6.0,8.0,98,0.00,,,0.00,WeatherCatV1.14B232,2013-07-13 11:54:00,
2013-07-13 04:59:00,53.5,52.9,29.91,WSW,250,8.0,11.0,98,0.00,,,0.00,WeatherCatV1.14B232,2013-07-13 11:59:00,
2013-07-13 05:04:00,53.5,52.9,29.91,WSW,248,8.0,9.0,98,0.00,,,0.00,WeatherCatV1.14B232,2013-07-13 12:04:00,
2013-07-13 05:09:00,53.6,53.0,29.91,WSW,257,6.0,9.0,98,0.00,,,0.00,WeatherCatV1.14B232,2013-07-13 12:09:00,
2013-07-13 05:14:00,53.5,52.9,29.91,WSW,245,6.0,8.0,98,0.00,,,0.00,WeatherCatV1.14B232,2013-07-13 12:14:00,
2013-07-13 05:19:00,53.4,52.8,29.91,SW,233,6.0,7.0,98,0.00,,,0.00,WeatherCatV1.14B232,2013-07-13 12:19:00,
2013-07-13 05:24:00,53.4,52.8,29.91,West,269,5.0,9.0,98,0.00,,,0.00,WeatherCatV1.14B232,2013-07-13 12:24:00,
2013-07-13 05:29:00,53.5,52.9,29.91,WSW,251,6.0,6.0,98,0.00,,,0.00,WeatherCatV1.14B232,2013-07-13 12:29:00,
2013-07-13 05:34:00,53.4,52.8,29.91,WSW,250,5.0,8.0,98,0.00,,,0.00,WeatherCatV1.14B232,2013-07-13 12:34:00,
2013-07-13 05:39:00,53.5,52.9,29.91,SW,217,5.0,7.0,98,0.00,,,0.00,WeatherCatV1.14B232,2013-07-13 12:39:00,
2013-07-13 05:44:00,53.5,52.9,29.91,WSW,252,5.0,7.0,98,0.00,,,0.00,WeatherCatV1.14B232,2013-07-13 12:44:00,
2013-07-13 05:49:00,53.6,53.0,29.92,SSW,197,6.0,7.0,98,0.00,,,0.00,WeatherCatV1.14B232,2013-07-13 12:49:00,
2013-07-13 05:54:00,53.6,53.0,29.92,SW,227,8.0,11.0,98,0.00,,,0.00,WeatherCatV1.14B232,2013-07-13 12:54:00,
2013-07-13 05:59:00,53.7,53.1,29.92,West,259,6.0,7.0,98,0.00,,,0.00,WeatherCatV1.14B232,2013-07-13 12:59:00,
2013-07-13 06:04:00,53.7,53.1,29.92,WSW,252,6.0,8.0,98,0.00,,,0.00,WeatherCatV1.14B232,2013-07-13 13:04:00,
2013-07-13 06:09:00,53.8,53.2,29.92,WSW,255,6.0,8.0,98,0.00,,,0.00,WeatherCatV1.14B232,2013-07-13 13:09:00,
2013-07-13 06:14:00,53.8,53.2,29.92,West,266,4.0,6.0,98,0.00,,,0.00,WeatherCatV1.14B232,2013-07-13 13:14:00,
2013-07-13 06:19:00,53.8,53.2,29.92,WSW,242,5.0,6.0,98,0.00,,,0.00,WeatherCatV1.14B232,2013-07-13 13:19:00,
2013-07-13 06:24:00,53.9,53.3,29.92,West,269,6.0,9.0,98,0.00,,,0.00,WeatherCatV1.14B232,2013-07-13 13:24:00,
2013-07-13 06:29:00,53.9,53.3,29.93,SW,218,4.0,6.0,98,0.00,,,0.00,WeatherCatV1.14B232,2013-07-13 13:29:00,
2013-07-13 06:34:00,54.0,53.4,29.93,South,191,4.0,7.0,98,0.00,,,0.00,WeatherCatV1.14B232,2013-07-13 13:34:00,
2013-07-13 06:39:00,54.0,53.4,29.93,WSW,240,4.0,7.0,98,0.00,,,0.00,WeatherCatV1.14B232,2013-07-13 13:39:00,
2013-07-13 06:44:00,54.1,53.5,29.93,SW,231,4.0,6.0,98,0.00,,,0.00,WeatherCatV1.14B232,2013-07-13 13:44:00,
2013-07-13 06:49:00,54.3,53.7,29.93,WSW,250,4.0,6.0,98,0.00,,,0.00,WeatherCatV1.14B232,2013-07-13 13:49:00,
2013-07-13 06:54:00,54.3,53.7,29.93,WSW,248,4.0,6.0,98,0.00,,,0.00,WeatherCatV1.14B232,2013-07-13 13:54:00,
2013-07-13 06:59:00,54.5,53.9,29.93,SW,215,5.0,6.0,98,0.00,,,0.00,WeatherCatV1.14B232,2013-07-13 13:59:00,
2013-07-13 07:04:00,54.5,53.7,29.93,WSW,249,4.0,8.0,97,0.00,,,0.00,WeatherCatV1.14B232,2013-07-13 14:04:00,
2013-07-13 07:09:00,54.5,53.7,29.93,WSW,256,4.0,7.0,97,0.00,,,0.00,WeatherCatV1.14B232,2013-07-13 14:09:00,
2013-07-13 07:14:00,54.5,53.7,29.94,WSW,256,4.0,7.0,97,0.00,,,0.00,WeatherCatV1.14B232,2013-07-13 14:14:00,
2013-07-13 07:19:00,54.7,53.9,29.94,WSW,257,4.0,8.0,97,0.00,,,0.00,WeatherCatV1.14B232,2013-07-13 14:19:00,
2013-07-13 07:24:00,54.8,54.0,29.94,WSW,257,5.0,8.0,97,0.00,,,0.00,WeatherCatV1.14B232,2013-07-13 14:24:00,
2013-07-13 07:29:00,54.8,54.0,29.94,WSW,243,6.0,7.0,97,0.00,,,0.00,WeatherCatV1.14B232,2013-07-13 14:29:00,
2013-07-13 07:34:00,54.8,53.7,29.94,West,259,5.0,11.0,96,0.00,,,0.00,WeatherCatV1.14B232,2013-07-13 14:34:00,
2013-07-13 07:39:00,54.9,53.8,29.94,West,259,4.0,8.0,96,0.00,,,0.00,WeatherCatV1.14B232,2013-07-13 14:39:00,
2013-07-13 07:44:00,54.9,53.8,29.94,West,269,5.0,7.0,96,0.00,,,0.00,WeatherCatV1.14B232,2013-07-13 14:44:00,
2013-07-13 07:49:00,54.8,53.7,29.94,SW,224,7.0,9.0,96,0.00,,,0.00,WeatherCatV1.14B232,2013-07-13 14:49:00,
2013-07-13 07:54:00,54.9,53.8,29.94,WSW,258,3.0,6.0,96,0.00,,,0.00,WeatherCatV1.14B232,2013-07-13 14:54:00,
2013-07-13 07:59:00,55.2,54.1,29.94,SW,232,6.0,6.0,96,0.00,,,0.00,WeatherCatV1.14B232,2013-07-13 14:59:00,
2013-07-13 08:04:00,55.5,54.4,29.95,SW,236,6.0,9.0,96,0.00,,,0.00,WeatherCatV1.14B232,2013-07-13 15:04:00,
2013-07-13 08:09:00,55.6,54.2,29.95,WSW,253,5.0,11.0,95,0.00,,,0.00,WeatherCatV1.14B232,2013-07-13 15:09:00,
2013-07-13 08:14:00,55.8,54.4,29.95,WSW,256,6.0,10.0,95,0.00,,,0.00,WeatherCatV1.14B232,2013-07-13 15:14:00,
2013-07-13 08:19:00,56.0,54.6,29.95,WSW,249,5.0,8.0,95,0.00,,,0.00,WeatherCatV1.14B232,2013-07-13 15:19:00,
2013-07-13 08:24:00,56.0,54.3,29.95,WSW,257,5.0,9.0,94,0.00,,,0.00,WeatherCatV1.14B232,2013-07-13 15:24:00,
2013-07-13 08:29:00,56.1,54.4,29.95,WSW,244,7.0,9.0,94,0.00,,,0.00,WeatherCatV1.14B232,2013-07-13 15:29:00,
2013-07-13 08:34:00,56.4,54.7,29.95,West,259,4.0,8.0,94,0.00,,,0.00,WeatherCatV1.14B232,2013-07-13 15:34:00,
2013-07-13 08:39:00,56.6,54.6,29.95,WSW,258,7.0,8.0,93,0.00,,,0.00,WeatherCatV1.14B232,2013-07-13 15:39:00,
2013-07-13 08:44:00,56.7,54.7,29.96,West,271,5.0,8.0,93,0.00,,,0.00,WeatherCatV1.14B232,2013-07-13 15:44:00,
2013-07-13 08:49:00,56.7,54.7,29.96,WSW,254,5.0,8.0,93,0.00,,,0.00,WeatherCatV1.14B232,2013-07-13 15:49:00,
2013-07-13 08:54:00,56.8,54.8,29.96,WSW,240,4.0,8.0,93,0.00,,,0.00,WeatherCatV1.14B232,2013-07-13 15:54:00,
2013-07-13 08:59:00,57.0,55.0,29.96,WSW,243,6.0,9.0,93,0.00,,,0.00,WeatherCatV1.14B232,2013-07-13 15:59:00,
2013-07-13 09:04:00,57.1,54.8,29.96,WSW,257,7.0,8.0,92,0.00,,,0.00,WeatherCatV1.14B232,2013-07-13 16:04:00,
2013-07-13 09:09:00,57.2,54.6,29.96,SW,226,6.0,8.0,91,0.00,,,0.00,WeatherCatV1.14B232,2013-07-13 16:09:00,
2013-07-13 09:14:00,57.4,55.1,29.96,WSW,252,4.0,6.0,92,0.00,,,0.00,WeatherCatV1.14B232,2013-07-13 16:14:00,
2013-07-13 09:19:00,57.7,55.1,29.96,WSW,247,6.0,9.0,91,0.00,,,0.00,WeatherCatV1.14B232,2013-07-13 16:19:00,
2013-07-13 09:24:00,58.0,55.4,29.96,WSW,248,13.0,13.0,91,0.00,,,0.00,WeatherCatV1.14B232,2013-07-13 16:24:00,
2013-07-13 09:29:00,58.3,55.4,29.96,West,269,8.0,9.0,90,0.00,,,0.00,WeatherCatV1.14B232,2013-07-13 16:29:00,
2013-07-13 09:34:00,58.3,55.1,29.96,SW,235,6.0,11.0,89,0.00,,,0.00,WeatherCatV1.14B232,2013-07-13 16:34:00,
2013-07-13 09:39:00,58.9,55.7,29.96,WSW,258,4.0,7.0,89,0.00,,,0.00,WeatherCatV1.14B232,2013-07-13 16:39:00,
2013-07-13 09:44:00,59.1,55.9,29.96,WSW,252,9.0,9.0,89,0.00,,,0.00,WeatherCatV1.14B232,2013-07-13 16:44:00,
2013-07-13 09:49:00,59.4,55.5,29.96,WSW,244,8.0,10.0,87,0.00,,,0.00,WeatherCatV1.14B232,2013-07-13 16:49:00,
2013-07-13 09:54:00,59.7,56.1,29.96,WSW,253,3.0,6.0,88,0.00,,,0.00,WeatherCatV1.14B232,2013-07-13 16:54:00,
2013-07-13 09:59:00,59.9,56.0,29.96,WSW,245,6.0,11.0,87,0.00,,,0.00,WeatherCatV1.14B232,2013-07-13 16:59:00,
2013-07-13 10:04:00,60.0,56.1,29.96,WSW,244,6.0,12.0,87,0.00,,,0.00,WeatherCatV1.14B232,2013-07-13 17:04:00,
2013-07-13 10:09:00,59.9,56.3,29.96,West,264,7.0,13.0,88,0.00,,,0.00,WeatherCatV1.14B232,2013-07-13 17:09:00,
2013-07-13 10:14:00,60.0,56.4,29.96,West,266,9.0,11.0,88,0.00,,,0.00,WeatherCatV1.14B232,2013-07-13 17:14:00,
2013-07-13 10:19:00,60.1,56.2,29.96,WSW,247,14.0,14.0,87,0.00,,,0.00,WeatherCatV1.14B232,2013-07-13 17:19:00,
2013-07-13 10:24:00,60.2,56.3,29.96,West,269,10.0,13.0,87,0.00,,,0.00,WeatherCatV1.14B232,2013-07-13 17:24:00,
2013-07-13 10:29:00,60.3,56.4,29.96,WSW,253,15.0,15.0,87,0.00,,,0.00,WeatherCatV1.14B232,2013-07-13 17:29:00,
2013-07-13 10:34:00,60.3,56.4,29.96,WSW,257,9.0,14.0,87,0.00,,,0.00,WeatherCatV1.14B232,2013-07-13 17:34:00,
2013-07-13 10:39:00,60.2,56.3,29.97,West,277,10.0,13.0,87,0.00,,,0.00,WeatherCatV1.14B232,2013-07-13 17:39:00,
2013-07-13 10:44:00,60.7,56.5,29.96,West,271,10.0,16.0,86,0.00,,,0.00,WeatherCatV1.14B232,2013-07-13 17:44:00,
2013-07-13 10:49:00,60.6,56.4,29.96,WSW,253,8.0,16.0,86,0.00,,,0.00,WeatherCatV1.14B232,2013-07-13 17:49:00,
2013-07-13 10:54:00,60.7,55.8,29.96,West,276,11.0,17.0,84,0.00,,,0.00,WeatherCatV1.14B232,2013-07-13 17:54:00,
2013-07-13 10:59:00,60.5,55.6,29.97,SW,229,11.0,18.0,84,0.00,,,0.00,WeatherCatV1.14B232,2013-07-13 17:59:00,
2013-07-13 11:04:00,60.7,55.8,29.97,WSW,252,14.0,17.0,84,0.00,,,0.00,WeatherCatV1.14B232,2013-07-13 18:04:00,
2013-07-13 11:09:00,61.1,56.2,29.97,WSW,248,12.0,19.0,84,0.00,,,0.00,WeatherCatV1.14B232,2013-07-13 18:09:00,
2013-07-13 11:14:00,61.0,55.8,29.97,WSW,247,12.0,19.0,83,0.00,,,0.00,WeatherCatV1.14B232,2013-07-13 18:14:00,
2013-07-13 11:19:00,61.1,55.9,29.97,WSW,240,12.0,16.0,83,0.00,,,0.00,WeatherCatV1.14B232,2013-07-13 18:19:00,
2013-07-13 11:24:00,61.4,55.5,29.97,WSW,253,14.0,16.0,81,0.00,,,0.00,WeatherCatV1.14B232,2013-07-13 18:24:00,
2013-07-13 11:29:00,61.4,55.9,29.97,WSW,244,14.0,19.0,82,0.00,,,0.00,WeatherCatV1.14B232,2013-07-13 18:29:00,
2013-07-13 11:34:00,61.1,55.6,29.97,WSW,240,10.0,15.0,82,0.00,,,0.00,WeatherCatV1.14B232,2013-07-13 18:34:00,
2013-07-13 11:39:00,61.3,55.8,29.97,West,261,10.0,16.0,82,0.00,,,0.00,WeatherCatV1.14B232,2013-07-13 18:39:00,
2013-07-13 11:44:00,61.3,55.8,29.97,WSW,245,15.0,17.0,82,0.00,,,0.00,WeatherCatV1.14B232,2013-07-13 18:44:00,
2013-07-13 11:49:00,61.3,55.8,29.97,WSW,257,16.0,18.0,82,0.00,,,0.00,WeatherCatV1.14B232,2013-07-13 18:49:00,
2013-07-13 11:54:00,61.4,55.5,29.97,South,190,10.0,15.0,81,0.00,,,0.00,WeatherCatV1.14B232,2013-07-13 18:54:00,
2013-07-13 11:59:00,61.7,55.8,29.97,WSW,256,11.0,15.0,81,0.00,,,0.00,WeatherCatV1.14B232,2013-07-13 18:59:00,
2013-07-13 12:04:00,62.0,56.1,29.97,South,185,12.0,17.0,81,0.00,,,0.00,WeatherCatV1.14B232,2013-07-13 19:04:00,
2013-07-13 12:09:00,62.1,56.2,29.97,WSW,250,11.0,17.0,81,0.00,,,0.00,WeatherCatV1.14B232,2013-07-13 19:09:00,
2013-07-13 12:14:00,62.1,55.9,29.97,WSW,257,10.0,15.0,80,0.00,,,0.00,WeatherCatV1.14B232,2013-07-13 19:14:00,
2013-07-13 12:19:00,62.6,56.0,29.97,WSW,252,8.0,12.0,79,0.00,,,0.00,WeatherCatV1.14B232,2013-07-13 19:19:00,
2013-07-13 12:24:00,62.7,56.1,29.97,WSW,250,10.0,12.0,79,0.00,,,0.00,WeatherCatV1.14B232,2013-07-13 19:24:00,
2013-07-13 12:29:00,62.8,55.8,29.97,West,260,8.0,15.0,78,0.00,,,0.00,WeatherCatV1.14B232,2013-07-13 19:29:00,
2013-07-13 12:34:00,62.8,55.8,29.97,SSW,213,10.0,14.0,78,0.00,,,0.00,WeatherCatV1.14B232,2013-07-13 19:34:00,
2013-07-13 12:39:00,63.3,56.0,29.97,West,264,13.0,13.0,77,0.00,,,0.00,WeatherCatV1.14B232,2013-07-13 19:39:00,
2013-07-13 12:44:00,63.1,55.8,29.97,SW,223,10.0,14.0,77,0.00,,,0.00,WeatherCatV1.14B232,2013-07-13 19:44:00,
2013-07-13 12:49:00,62.9,55.9,29.97,West,259,10.0,13.0,78,0.00,,,0.00,WeatherCatV1.14B232,2013-07-13 19:49:00,
2013-07-13 12:54:00,63.2,55.9,29.97,West,261,9.0,15.0,77,0.00,,,0.00,WeatherCatV1.14B232,2013-07-13 19:54:00,
2013-07-13 12:59:00,63.8,56.4,29.97,SW,232,10.0,14.0,77,0.00,,,0.00,WeatherCatV1.14B232,2013-07-13 19:59:00,
2013-07-13 13:04:00,63.8,55.7,29.97,WSW,257,10.0,14.0,75,0.00,,,0.00,WeatherCatV1.14B232,2013-07-13 20:04:00,
2013-07-13 13:09:00,64.0,55.5,29.97,SW,232,8.0,12.0,74,0.00,,,0.00,WeatherCatV1.14B232,2013-07-13 20:09:00,
2013-07-13 13:14:00,64.2,56.1,29.97,SW,218,10.0,14.0,75,0.00,,,0.00,WeatherCatV1.14B232,2013-07-13 20:14:00,
2013-07-13 13:19:00,64.7,56.2,29.97,SSW,210,10.0,14.0,74,0.00,,,0.00,WeatherCatV1.14B232,2013-07-13 20:19:00,
2013-07-13 13:24:00,65.1,56.2,29.97,West,261,10.0,13.0,73,0.00,,,0.00,WeatherCatV1.14B232,2013-07-13 20:24:00,
2013-07-13 13:29:00,64.1,55.3,29.96,West,259,7.0,14.0,73,0.00,,,0.00,WeatherCatV1.14B232,2013-07-13 20:29:00,
2013-07-13 13:34:00,63.7,55.3,29.96,WSW,240,10.0,14.0,74,0.00,,,0.00,WeatherCatV1.14B232,2013-07-13 20:34:00,
2013-07-13 13:39:00,64.8,55.2,29.96,WSW,257,9.0,15.0,71,0.00,,,0.00,WeatherCatV1.14B232,2013-07-13 20:39:00,
2013-07-13 13:44:00,64.4,55.5,29.96,WSW,239,10.0,15.0,73,0.00,,,0.00,WeatherCatV1.14B232,2013-07-13 20:44:00,
2013-07-13 13:49:00,64.7,55.8,29.96,SW,224,12.0,13.0,73,0.00,,,0.00,WeatherCatV1.14B232,2013-07-13 20:49:00,
2013-07-13 13:54:00,65.0,56.1,29.96,WSW,251,9.0,12.0,73,0.00,,,0.00,WeatherCatV1.14B232,2013-07-13 20:54:00,
2013-07-13 13:59:00,65.6,55.5,29.96,SW,229,6.0,14.0,70,0.00,,,0.00,WeatherCatV1.14B232,2013-07-13 20:59:00,
2013-07-13 14:04:00,65.8,55.3,29.96,WSW,256,9.0,13.0,69,0.00,,,0.00,WeatherCatV1.14B232,2013-07-13 21:04:00,
2013-07-13 14:09:00,65.8,54.9,29.96,WSW,256,10.0,14.0,68,0.00,,,0.00,WeatherCatV1.14B232,2013-07-13 21:09:00,
2013-07-13 14:14:00,65.7,54.8,29.96,WSW,255,7.0,14.0,68,0.00,,,0.00,WeatherCatV1.14B232,2013-07-13 21:14:00,
2013-07-13 14:19:00,66.2,54.5,29.96,South,190,10.0,14.0,66,0.00,,,0.00,WeatherCatV1.14B232,2013-07-13 21:19:00,
2013-07-13 14:24:00,66.3,54.2,29.96,WSW,245,11.0,14.0,65,0.00,,,0.00,WeatherCatV1.14B232,2013-07-13 21:24:00,
2013-07-13 14:29:00,66.3,53.7,29.95,WSW,252,10.0,12.0,64,0.00,,,0.00,WeatherCatV1.14B232,2013-07-13 21:29:00,
2013-07-13 14:34:00,66.5,53.9,29.95,West,259,8.0,11.0,64,0.00,,,0.00,WeatherCatV1.14B232,2013-07-13 21:34:00,
2013-07-13 14:39:00,66.8,54.6,29.95,WSW,239,6.0,12.0,65,0.00,,,0.00,WeatherCatV1.14B232,2013-07-13 21:39:00,
2013-07-13 14:44:00,66.7,53.7,29.95,West,262,8.0,13.0,63,0.00,,,0.00,WeatherCatV1.14B232,2013-07-13 21:44:00,
2013-07-13 14:49:00,66.6,54.5,29.95,WSW,237,7.0,13.0,65,0.00,,,0.00,WeatherCatV1.14B232,2013-07-13 21:49:00,
2013-07-13 14:54:00,66.6,53.2,29.95,WSW,252,11.0,12.0,62,0.00,,,0.00,WeatherCatV1.14B232,2013-07-13 21:54:00,
2013-07-13 14:57:00,66.3,54.2,29.95,WSW,239,7.0,12.0,65,0.00,,,0.00,WeatherCatV1.14B232,2013-07-13 21:57:00,
2013-07-13 15:02:00,66.6,54.5,29.95,WSW,240,7.0,13.0,65,0.00,,,0.00,WeatherCatV1.14B232,2013-07-13 22:02:00,
2013-07-13 15:07:00,66.7,55.0,29.95,WSW,244,4.0,13.0,66,0.00,,,0.00,WeatherCatV1.14B232,2013-07-13 22:07:00,
2013-07-13 15:12:00,66.5,54.8,29.95,WSW,244,9.0,11.0,66,0.00,,,0.00,WeatherCatV1.14B232,2013-07-13 22:12:00,
2013-07-13 15:17:00,66.4,54.3,29.95,WSW,240,12.0,12.0,65,0.00,,,0.00,WeatherCatV1.14B232,2013-07-13 22:17:00,
2013-07-13 15:22:00,66.5,55.2,29.94,WSW,255,6.0,11.0,67,0.00,,,0.00,WeatherCatV1.14B232,2013-07-13 22:22:00,
2013-07-13 15:27:00,67.5,54.9,29.94,WSW,240,7.0,10.0,64,0.00,,,0.00,WeatherCatV1.14B232,2013-07-13 22:27:00,
2013-07-13 15:32:00,67.3,54.7,29.94,WSW,248,7.0,9.0,64,0.00,,,0.00,WeatherCatV1.14B232,2013-07-13 22:32:00,
2013-07-13 15:37:00,67.3,54.7,29.94,WSW,254,9.0,11.0,64,0.00,,,0.00,WeatherCatV1.14B232,2013-07-13 22:37:00,
2013-07-13 15:42:00,67.6,54.5,29.94,WSW,238,9.0,12.0,63,0.00,,,0.00,WeatherCatV1.14B232,2013-07-13 22:42:00,
2013-07-13 15:47:00,67.4,54.8,29.94,SW,236,6.0,13.0,64,0.00,,,0.00,WeatherCatV1.14B232,2013-07-13 22:47:00,
2013-07-13 15:52:00,67.7,55.5,29.94,West,268,4.0,11.0,65,0.00,,,0.00,WeatherCatV1.14B232,2013-07-13 22:52:00,
2013-07-13 15:57:00,68.0,55.8,29.93,WSW,250,12.0,12.0,65,0.00,,,0.00,WeatherCatV1.14B232,2013-07-13 22:57:00,
2013-07-13 16:02:00,67.8,55.6,29.93,SW,233,9.0,11.0,65,0.00,,,0.00,WeatherCatV1.14B232,2013-07-13 23:02:00,
2013-07-13 16:07:00,68.6,56.4,29.93,SW,236,8.0,11.0,65,0.00,,,0.00,WeatherCatV1.14B232,2013-07-13 23:07:00,
2013-07-13 16:12:00,68.5,55.8,29.93,WSW,255,8.0,13.0,64,0.00,,,0.00,WeatherCatV1.14B232,2013-07-13 23:12:00,
2013-07-13 16:17:00,68.3,56.1,29.93,SW,236,12.0,13.0,65,0.00,,,0.00,WeatherCatV1.14B232,2013-07-13 23:17:00,
2013-07-13 16:22:00,67.4,56.5,29.93,SW,217,7.0,11.0,68,0.00,,,0.00,WeatherCatV1.14B232,2013-07-13 23:22:00,
2013-07-13 16:27:00,66.8,55.5,29.93,SW,214,7.0,13.0,67,0.00,,,0.00,WeatherCatV1.14B232,2013-07-13 23:27:00,
2013-07-13 16:32:00,66.4,55.9,29.93,WSW,246,12.0,13.0,69,0.00,,,0.00,WeatherCatV1.14B232,2013-07-13 23:32:00,
2013-07-13 16:37:00,66.1,55.6,29.93,WSW,253,8.0,12.0,69,0.00,,,0.00,WeatherCatV1.14B232,2013-07-13 23:37:00,
2013-07-13 16:42:00,66.2,56.1,29.93,SW,229,10.0,15.0,70,0.00,,,0.00,WeatherCatV1.14B232,2013-07-13 23:42:00,
2013-07-13 16:47:00,65.7,56.0,29.92,WSW,257,10.0,14.0,71,0.00,,,0.00,WeatherCatV1.14B232,2013-07-13 23:47:00,
2013-07-13 16:52:00,65.5,55.8,29.93,West,269,6.0,14.0,71,0.00,,,0.00,WeatherCatV1.14B232,2013-07-13 23:52:00,
2013-07-13 16:57:00,65.8,56.1,29.93,SW,224,12.0,13.0,71,0.00,,,0.00,WeatherCatV1.14B232,2013-07-13 23:57:00,
2013-07-13 17:02:00,65.1,55.8,29.92,West,260,8.0,12.0,72,0.00,,,0.00,WeatherCatV1.14B232,2013-07-14 00:02:00,
2013-07-13 17:07:00,64.6,55.7,29.92,SSW,210,10.0,16.0,73,0.00,,,0.00,WeatherCatV1.14B232,2013-07-14 00:07:00,
2013-07-13 17:12:00,64.6,55.7,29.92,WSW,245,14.0,15.0,73,0.00,,,0.00,WeatherCatV1.14B232,2013-07-14 00:12:00,
2013-07-13 17:17:00,64.2,55.7,29.92,WSW,245,9.0,16.0,74,0.00,,,0.00,WeatherCatV1.14B232,2013-07-14 00:17:00,
2013-07-13 17:22:00,63.6,55.5,29.92,WSW,251,11.0,14.0,75,0.00,,,0.00,WeatherCatV1.14B232,2013-07-14 00:22:00,
2013-07-13 17:27:00,63.4,56.1,29.92,WSW,258,11.0,17.0,77,0.00,,,0.00,WeatherCatV1.14B232,2013-07-14 00:27:00,
2013-07-13 17:32:00,63.2,55.9,29.92,WSW,241,9.0,18.0,77,0.00,,,0.00,WeatherCatV1.14B232,2013-07-14 00:32:00,
2013-07-13 17:37:00,63.3,56.7,29.92,WSW,238,10.0,14.0,79,0.00,,,0.00,WeatherCatV1.14B232,2013-07-14 00:37:00,
2013-07-13 17:42:00,63.7,56.3,29.92,WSW,238,14.0,15.0,77,0.00,,,0.00,WeatherCatV1.14B232,2013-07-14 00:42:00,
2013-07-13 17:47:00,64.2,56.1,29.91,WSW,237,16.0,18.0,75,0.00,,,0.00,WeatherCatV1.14B232,2013-07-14 00:47:00,
2013-07-13 17:52:00,64.1,56.4,29.91,SW,221,15.0,15.0,76,0.00,,,0.00,WeatherCatV1.14B232,2013-07-14 00:52:00,
2013-07-13 17:57:00,63.8,56.4,29.91,SSW,211,6.0,12.0,77,0.00,,,0.00,WeatherCatV1.14B232,2013-07-14 00:57:00,
2013-07-13 18:02:00,63.2,56.6,29.91,WSW,242,14.0,14.0,79,0.00,,,0.00,WeatherCatV1.14B232,2013-07-14 01:02:00,
2013-07-13 18:07:00,62.9,57.0,29.91,WSW,248,7.0,13.0,81,0.00,,,0.00,WeatherCatV1.14B232,2013-07-14 01:07:00,
2013-07-13 18:12:00,63.2,57.3,29.91,West,259,12.0,14.0,81,0.00,,,0.00,WeatherCatV1.14B232,2013-07-14 01:12:00,
2013-07-13 18:17:00,63.6,57.3,29.91,WSW,243,11.0,14.0,80,0.00,,,0.00,WeatherCatV1.14B232,2013-07-14 01:17:00,
2013-07-13 18:22:00,63.9,57.3,29.91,SW,217,9.0,11.0,79,0.00,,,0.00,WeatherCatV1.14B232,2013-07-14 01:22:00,
2013-07-13 18:27:00,64.1,57.4,29.91,SW,234,10.0,10.0,79,0.00,,,0.00,WeatherCatV1.14B232,2013-07-14 01:27:00,
2013-07-13 18:32:00,64.0,57.3,29.91,WSW,243,11.0,11.0,79,0.00,,,0.00,WeatherCatV1.14B232,2013-07-14 01:32:00,
2013-07-13 18:37:00,63.8,57.2,29.91,WSW,253,6.0,11.0,79,0.00,,,0.00,WeatherCatV1.14B232,2013-07-14 01:37:00,
2013-07-13 18:42:00,63.8,56.8,29.91,WSW,248,11.0,12.0,78,0.00,,,0.00,WeatherCatV1.14B232,2013-07-14 01:42:00,
2013-07-13 18:47:00,63.7,56.7,29.91,WSW,240,8.0,12.0,78,0.00,,,0.00,WeatherCatV1.14B232,2013-07-14 01:47:00,
2013-07-13 18:52:00,63.7,56.3,29.91,SW,232,10.0,14.0,77,0.00,,,0.00,WeatherCatV1.14B232,2013-07-14 01:52:00,
2013-07-13 18:57:00,63.4,56.4,29.92,WSW,246,7.0,14.0,78,0.00,,,0.00,WeatherCatV1.14B232,2013-07-14 01:57:00,
2013-07-13 19:02:00,63.1,56.5,29.92,WSW,240,13.0,13.0,79,0.00,,,0.00,WeatherCatV1.14B232,2013-07-14 02:02:00,
2013-07-13 19:07:00,62.8,56.2,29.92,WSW,256,9.0,10.0,79,0.00,,,0.00,WeatherCatV1.14B232,2013-07-14 02:07:00,
2013-07-13 19:12:00,62.6,56.3,29.92,WSW,238,10.0,12.0,80,0.00,,,0.00,WeatherCatV1.14B232,2013-07-14 02:12:00,
2013-07-13 19:17:00,62.4,56.1,29.92,SW,236,5.0,8.0,80,0.00,,,0.00,WeatherCatV1.14B232,2013-07-14 02:17:00,
2013-07-13 19:22:00,62.1,56.2,29.92,WSW,253,5.0,8.0,81,0.00,,,0.00,WeatherCatV1.14B232,2013-07-14 02:22:00,
2013-07-13 19:27:00,61.6,56.0,29.92,WSW,257,8.0,11.0,82,0.00,,,0.00,WeatherCatV1.14B232,2013-07-14 02:27:00,
2013-07-13 19:32:00,61.4,55.5,29.92,WSW,246,6.0,10.0,81,0.00,,,0.00,WeatherCatV1.14B232,2013-07-14 02:32:00,
2013-07-13 19:37:00,60.9,55.4,29.92,West,272,3.0,9.0,82,0.00,,,0.00,WeatherCatV1.14B232,2013-07-14 02:37:00,
2013-07-13 19:42:00,60.5,55.0,29.92,WSW,249,6.0,10.0,82,0.00,,,0.00,WeatherCatV1.14B232,2013-07-14 02:42:00,
2013-07-13 19:47:00,59.8,55.0,29.92,West,271,5.0,11.0,84,0.00,,,0.00,WeatherCatV1.14B232,2013-07-14 02:47:00,
2013-07-13 19:52:00,59.3,54.5,29.92,WSW,252,11.0,14.0,84,0.00,,,0.00,WeatherCatV1.14B232,2013-07-14 02:52:00,
2013-07-13 19:57:00,59.0,54.5,29.92,SW,224,6.0,12.0,85,0.00,,,0.00,WeatherCatV1.14B232,2013-07-14 02:57:00,
2013-07-13 20:02:00,58.8,54.3,29.92,SW,222,6.0,8.0,85,0.00,,,0.00,WeatherCatV1.14B232,2013-07-14 03:02:00,
2013-07-13 20:07:00,58.8,54.3,29.92,SW,226,4.0,8.0,85,0.00,,,0.00,WeatherCatV1.14B232,2013-07-14 03:07:00,
2013-07-13 20:12:00,58.8,54.0,29.92,WSW,237,5.0,7.0,84,0.00,,,0.00,WeatherCatV1.14B232,2013-07-14 03:12:00,
2013-07-13 20:17:00,58.6,54.1,29.92,SW,233,7.0,7.0,85,0.00,,,0.00,WeatherCatV1.14B232,2013-07-14 03:17:00,
2013-07-13 20:22:00,58.3,54.1,29.92,SW,230,5.0,5.0,86,0.00,,,0.00,WeatherCatV1.14B232,2013-07-14 03:22:00,
2013-07-13 20:27:00,57.9,54.1,29.92,SW,226,10.0,10.0,87,0.00,,,0.00,WeatherCatV1.14B232,2013-07-14 03:27:00,
2013-07-13 20:32:00,57.6,54.1,29.92,SSW,200,5.0,8.0,88,0.00,,,0.00,WeatherCatV1.14B232,2013-07-14 03:32:00,
2013-07-13 20:37:00,57.3,54.1,29.92,WSW,255,6.0,6.0,89,0.00,,,0.00,WeatherCatV1.14B232,2013-07-14 03:37:00,
2013-07-13 20:42:00,57.0,54.1,29.92,WSW,246,5.0,5.0,90,0.00,,,0.00,WeatherCatV1.14B232,2013-07-14 03:42:00,
2013-07-13 20:47:00,56.9,54.0,29.92,SSW,206,3.0,8.0,90,0.00,,,0.00,WeatherCatV1.14B232,2013-07-14 03:47:00,
2013-07-13 20:52:00,56.8,54.2,29.93,SW,226,4.0,8.0,91,0.00,,,0.00,WeatherCatV1.14B232,2013-07-14 03:52:00,
2013-07-13 20:57:00,56.8,54.5,29.92,WSW,243,4.0,5.0,92,0.00,,,0.00,WeatherCatV1.14B232,2013-07-14 03:57:00,
2013-07-13 21:01:00,56.7,54.1,29.92,WSW,239,4.0,6.0,91,0.00,,,0.00,WeatherCatV1.14B232,2013-07-14 04:01:00,
2013-07-13 21:06:00,56.7,54.1,29.92,SW,222,2.0,4.0,91,0.00,,,0.00,WeatherCatV1.14B232,2013-07-14 04:06:00,
2013-07-13 21:11:00,56.6,54.3,29.93,WSW,248,3.0,3.0,92,0.00,,,0.00,WeatherCatV1.14B232,2013-07-14 04:11:00,
2013-07-13 21:14:00,56.5,54.2,29.93,SW,221,3.0,4.0,92,0.00,,,0.00,WeatherCatV1.14B232,2013-07-14 04:14:00,
2013-07-13 21:19:00,56.4,54.1,29.93,SW,227,5.0,5.0,92,0.00,,,0.00,WeatherCatV1.14B232,2013-07-14 04:19:00,
2013-07-13 21:24:00,56.4,54.1,29.93,WSW,247,4.0,4.0,92,0.00,,,0.00,WeatherCatV1.14B232,2013-07-14 04:24:00,
2013-07-13 21:29:00,56.4,54.4,29.93,SW,214,3.0,5.0,93,0.00,,,0.00,WeatherCatV1.14B232,2013-07-14 04:29:00,
2013-07-13 21:34:00,56.4,54.1,29.94,SW,235,6.0,6.0,92,0.00,,,0.00,WeatherCatV1.14B232,2013-07-14 04:34:00,
2013-07-13 21:39:00,56.4,54.1,29.94,SSW,208,4.0,6.0,92,0.00,,,0.00,WeatherCatV1.14B232,2013-07-14 04:39:00,
2013-07-13 21:44:00,56.4,54.4,29.94,SW,233,6.0,8.0,93,0.00,,,0.00,WeatherCatV1.14B232,2013-07-14 04:44:00,
2013-07-13 21:49:00,56.4,54.1,29.94,SW,226,5.0,8.0,92,0.00,,,0.00,WeatherCatV1.14B232,2013-07-14 04:49:00,
2013-07-13 21:54:00,56.5,54.2,29.94,SW,221,3.0,6.0,92,0.00,,,0.00,WeatherCatV1.14B232,2013-07-14 04:54:00,
2013-07-13 21:59:00,56.4,54.1,29.94,SSW,208,5.0,8.0,92,0.00,,,0.00,WeatherCatV1.14B232,2013-07-14 04:59:00,
2013-07-13 22:04:00,56.3,54.0,29.94,SW,234,5.0,8.0,92,0.00,,,0.00,WeatherCatV1.14B232,2013-07-14 05:04:00,
2013-07-13 22:09:00,56.2,54.2,29.94,SW,228,5.0,6.0,93,0.00,,,0.00,WeatherCatV1.14B232,2013-07-14 05:09:00,
2013-07-13 22:14:00,56.2,54.2,29.95,SW,218,2.0,5.0,93,0.00,,,0.00,WeatherCatV1.14B232,2013-07-14 05:14:00,
2013-07-13 22:19:00,56.0,54.0,29.95,SSW,210,4.0,6.0,93,0.00,,,0.00,WeatherCatV1.14B232,2013-07-14 05:19:00,
2013-07-13 22:24:00,56.0,54.0,29.95,SSW,210,4.0,8.0,93,0.00,,,0.00,WeatherCatV1.14B232,2013-07-14 05:24:00,
2013-07-13 22:29:00,55.9,53.9,29.95,SW,235,7.0,10.0,93,0.00,,,0.00,WeatherCatV1.14B232,2013-07-14 05:29:00,
2013-07-13 22:34:00,55.9,53.9,29.95,West,259,7.0,11.0,93,0.00,,,0.00,WeatherCatV1.14B232,2013-07-14 05:34:00,
2013-07-13 22:39:00,55.9,53.9,29.95,SW,222,6.0,7.0,93,0.00,,,0.00,WeatherCatV1.14B232,2013-07-14 05:39:00,
2013-07-13 22:44:00,55.8,53.8,29.95,WSW,243,7.0,8.0,93,0.00,,,0.00,WeatherCatV1.14B232,2013-07-14 05:44:00,
2013-07-13 22:49:00,55.7,53.7,29.95,WSW,250,9.0,9.0,93,0.00,,,0.00,WeatherCatV1.14B232,2013-07-14 05:49:00,
2013-07-13 22:52:00,55.7,53.7,29.95,SW,224,7.0,10.0,93,0.00,,,0.00,WeatherCatV1.14B232,2013-07-14 05:52:00,
2013-07-13 22:55:00,55.6,53.9,29.95,WSW,245,9.0,11.0,94,0.00,,,0.00,WeatherCatV1.14B232,2013-07-14 05:55:00,
2013-07-13 23:00:00,55.5,53.8,29.95,WSW,258,7.0,11.0,94,0.00,,,0.00,WeatherCatV1.14B232,2013-07-14 06:00:00,
2013-07-13 23:05:00,55.3,53.6,29.95,WSW,242,10.0,11.0,94,0.00,,,0.00,WeatherCatV1.14B232,2013-07-14 06:05:00,
2013-07-13 23:10:00,55.3,53.6,29.95,SW,229,5.0,9.0,94,0.00,,,0.00,WeatherCatV1.14B232,2013-07-14 06:10:00,
2013-07-13 23:15:00,55.3,53.9,29.95,SW,231,7.0,10.0,95,0.00,,,0.00,WeatherCatV1.14B232,2013-07-14 06:15:00,
2013-07-13 23:20:00,55.2,53.8,29.95,WSW,238,7.0,10.0,95,0.00,,,0.00,WeatherCatV1.14B232,2013-07-14 06:20:00,
2013-07-13 23:25:00,55.2,53.8,29.95,WSW,239,5.0,8.0,95,0.00,,,0.00,WeatherCatV1.14B232,2013-07-14 06:25:00,
2013-07-13 23:30:00,55.2,53.8,29.95,WSW,250,6.0,10.0,95,0.00,,,0.00,WeatherCatV1.14B232,2013-07-14 06:30:00,
2013-07-13 23:35:00,55.0,53.6,29.95,WSW,243,5.0,10.0,95,0.00,,,0.00,WeatherCatV1.14B232,2013-07-14 06:35:00,
2013-07-13 23:40:00,55.0,53.9,29.95,WSW,246,8.0,10.0,96,0.00,,,0.00,WeatherCatV1.14B232,2013-07-14 06:40:00,
2013-07-13 23:45:00,55.0,53.9,29.96,WSW,252,5.0,8.0,96,0.00,,,0.00,WeatherCatV1.14B232,2013-07-14 06:45:00,
2013-07-13 23:50:00,54.9,53.8,29.96,WSW,258,10.0,10.0,96,0.00,,,0.00,WeatherCatV1.14B232,2013-07-14 06:50:00,
2013-07-13 23:55:00,54.8,53.7,29.96,SW,220,7.0,10.0,96,0.00,,,0.00,WeatherCatV1.14B232,2013-07-14 06:55:00,